Location: Fernhill
(41.0167°S, 175.6333°E)
Time: 02:57:42
(UTC+00:00)

SL-08 ROCKET BODY - Pass Details

Date: 08 November 2025
Orbit: 895 x 962 km, 82.9° (Epoch: 15 December)

Event Time Altitude Azimuth Distance (km) Brightness Sun altitude
Exits shadow 10:08:37 67° 351° (N) 1,003 4.3 -26.7°
Maximum altitude 10:09:30 89° 268° (W) 937 4.3 -26.7°
Drops below altitude 10° 10:15:38 10° 173° (S) 2,676 7.5 -27.3°
Sets 10:18:10 0° 172° (S) 3,637 8.3 -27.5°
